User: anonymous   Login
Location: Putah Creek Observatory
(38.7021°N, 122.3865°W)
Time: 02:32:11
(UTC-08:00)
Language:

Cosmos 2227 Rocket - Orbit

View from above orbital plane
View from above orbital plane
View from above satellite
View from above satellite

Ground track
Ground track

The orbit data is extracted from the following two-line orbital elements,

1 22285U 92093B   19049.15066825  .00000089  00000-0  70432-4 0  9995
2 22285  71.0227  10.6111 0006455 272.6310  87.4074 14.15026966348961
Epoch (UTC): 18 February 2019 03:36:57
Eccentricity: 0.0006455
inclination: 71.0227°
perigee height: 837 km
apogee height: 847 km
right ascension of ascending node: 10.6111°
argument of perigee: 272.6310°
revolutions per day: 14.15026966
mean anomaly at epoch: 87.4074°
orbit number at epoch: 34896

The dashed part of the orbit path shows where the satellite is in the earth's shadow,  

DLR